Home > Time Zones > World Clock > Weather > Italy > Turin > Past weeks

Flag for Italy Weather past 2 weeks in Turin, Italy

Now
68 °F

Scattered clouds.


Feels Like: 68 °F
Forecast: 52 / 75 °F
Wind: 5 mph from Northeast

Location: Torino / Bric Della Croce

Current Time: May 25, 2015 at 4:28:12 PM

Latest Report: May 25, 2015 at 3:55 PM


Visibility: N/A

Pressure: 29.89 "Hg

Humidity: 49%

Dew point: 48 °F

Location of TurinLocation

Historic Weather in Turin — Graph

°F

Turin temperature yesterday

Maximum temperature yesterday: 63 °F (at 3:55 PM)
Minimum temperature yesterday: 48 °F (at 12:55 AM)
Average temperature yesterday: 55 °F

Past Weeks' High & Low Weather Summary

 TemperatureHumidityPressure
High73 °F (May 10, 4:55 PM)100% (May 14, 11:55 PM)30.30 "Hg (May 14, 11:55 PM)
Low41 °F (May 21, 7:55 AM)36% (May 10, 4:55 PM)29.47 "Hg (May 15, 11:55 AM)
Average59 °F74%29.97 "Hg
* Reported May 10 2:55 PM — May 25 2:55 PM, Turin, Weather by CustomWeather, © 2015

Note: Actual official high and low records may vary slightly from our data, if they occured in-between our weather recording intervals... More about our weather records

Advertising

Turin weather history for previous 24 hours

 ConditionsComfort  
Time TempWeatherWind HumidityBarometerVisibility
2:55 PM
Mon, May 25
66 °FSunny.3 mph56%29.89 "Hg10 mi
1:55 PM64 °FSunny.5 mph64%29.92 "Hg10 mi
12:55 PM63 °FSunny.6 mph64%29.92 "Hg10 mi
11:55 AM61 °FSunny.3 mph72%29.92 "Hg10 mi
10:55 AM59 °FSunny.No wind72%29.95 "Hg10 mi
9:55 AM57 °FSunny.No wind67%29.95 "Hg10 mi
8:55 AM55 °FSunny.No wind67%29.95 "Hg10 mi
7:55 AM55 °FScattered clouds.No wind67%29.95 "HgN/A
6:55 AM57 °FPartly sunny.No wind59%29.95 "HgN/A
5:55 AM57 °FPassing clouds.No wind55%29.95 "HgN/A
4:55 AM55 °FPassing clouds.No wind63%29.95 "HgN/A
3:55 AM57 °FPassing clouds.No wind55%29.95 "HgN/A
2:55 AM55 °FPassing clouds.No wind63%29.98 "HgN/A
1:55 AM57 °FPassing clouds.No wind55%29.98 "HgN/A
12:55 AM57 °FPassing clouds.No wind55%29.98 "HgN/A
11:55 PM
Sun, May 24
57 °FPassing clouds.No wind55%29.98 "HgN/A
10:55 PM57 °FPassing clouds.No wind59%29.95 "HgN/A
9:55 PM59 °FScattered clouds.No wind51%29.95 "HgN/A
8:55 PM59 °FScattered clouds.No wind51%29.95 "HgN/A
7:55 PM59 °FPartly sunny.No wind51%29.95 "HgN/A
6:55 PM61 °FPartly sunny.No wind55%29.95 "HgN/A
5:55 PM61 °FPartly sunny.No wind55%29.98 "HgN/A
4:55 PM61 °FScattered clouds.No wind59%29.98 "HgN/A
Weather by CustomWeather, © 2015

See weather overviewHow to use our weather pages